Year,Month,Day,Hour,Minute,Value (Times are PST for temperature in C)
2013,07,15,00,00,16.40
2013,07,15,00,01,16.40
2013,07,15,00,02,16.40
2013,07,15,00,03,16.40
2013,07,15,00,04,16.40
2013,07,15,00,05,16.40
2013,07,15,00,06,16.40
2013,07,15,00,07,16.40
2013,07,15,00,08,16.40
2013,07,15,00,09,16.40
2013,07,15,00,10,16.40
2013,07,15,00,11,16.40
2013,07,15,00,12,16.40
2013,07,15,00,13,16.40
2013,07,15,00,14,16.40
2013,07,15,00,15,16.40
2013,07,15,00,16,16.40
2013,07,15,00,17,16.40
2013,07,15,00,18,16.40
2013,07,15,00,19,16.40
2013,07,15,00,20,16.40
2013,07,15,00,21,16.40
2013,07,15,00,22,16.40
2013,07,15,00,23,16.30
2013,07,15,00,24,16.30
2013,07,15,00,25,16.20
2013,07,15,00,26,16.10
2013,07,15,00,27,16.00
2013,07,15,00,28,15.90
2013,07,15,00,29,15.80
2013,07,15,00,30,15.80
2013,07,15,00,31,15.70
2013,07,15,00,32,15.70
2013,07,15,00,33,15.60
2013,07,15,00,34,15.60
2013,07,15,00,35,15.50
2013,07,15,00,36,15.50
2013,07,15,00,37,15.50
2013,07,15,00,38,15.40
2013,07,15,00,39,15.40
2013,07,15,00,40,15.40
2013,07,15,00,41,15.40
2013,07,15,00,42,15.40
2013,07,15,00,43,15.40
2013,07,15,00,44,15.40
2013,07,15,00,45,15.50
2013,07,15,00,46,15.50
2013,07,15,00,47,15.50
2013,07,15,00,48,15.50
2013,07,15,00,49,15.50
2013,07,15,00,50,15.50
2013,07,15,00,51,15.60
2013,07,15,00,52,15.60
2013,07,15,00,53,15.60
2013,07,15,00,54,15.70
2013,07,15,00,55,15.70
2013,07,15,00,56,15.70
2013,07,15,00,57,15.80
2013,07,15,00,58,15.80
2013,07,15,00,59,15.70
2013,07,15,01,00,15.70
2013,07,15,01,01,15.70
2013,07,15,01,02,15.70
2013,07,15,01,03,15.80
2013,07,15,01,04,15.80
2013,07,15,01,05,15.80
2013,07,15,01,06,15.80
2013,07,15,01,07,15.80
2013,07,15,01,08,15.90
2013,07,15,01,09,15.90
2013,07,15,01,10,15.90
2013,07,15,01,11,16.00
2013,07,15,01,12,16.10
2013,07,15,01,13,16.10
2013,07,15,01,14,16.10
2013,07,15,01,15,16.10
2013,07,15,01,16,16.10
2013,07,15,01,17,16.10
2013,07,15,01,18,16.10
2013,07,15,01,19,16.10
2013,07,15,01,20,16.10
2013,07,15,01,21,16.10
2013,07,15,01,22,16.10
2013,07,15,01,23,16.10
2013,07,15,01,24,16.20
2013,07,15,01,25,16.20
2013,07,15,01,26,16.20
2013,07,15,01,27,16.30
2013,07,15,01,28,16.30
2013,07,15,01,29,16.40
2013,07,15,01,30,16.40
2013,07,15,01,31,16.40
2013,07,15,01,32,16.40
2013,07,15,01,33,16.40
2013,07,15,01,34,16.40
2013,07,15,01,35,16.40
2013,07,15,01,36,16.40
2013,07,15,01,37,16.40
2013,07,15,01,38,16.40
2013,07,15,01,39,16.40
2013,07,15,01,40,16.40
2013,07,15,01,41,16.40
2013,07,15,01,42,16.40
2013,07,15,01,43,16.40
2013,07,15,01,44,16.40
2013,07,15,01,45,16.40
2013,07,15,01,46,16.40
2013,07,15,01,47,16.40
2013,07,15,01,48,16.30
2013,07,15,01,49,16.30
2013,07,15,01,50,16.30
2013,07,15,01,51,16.30
2013,07,15,01,52,16.30
2013,07,15,01,53,16.20
2013,07,15,01,54,16.20
2013,07,15,01,55,16.20
2013,07,15,01,56,16.20
2013,07,15,01,57,16.10
2013,07,15,01,58,16.10
2013,07,15,01,59,16.10
2013,07,15,02,00,16.10
2013,07,15,02,01,16.10
2013,07,15,02,02,16.10
2013,07,15,02,03,16.10
2013,07,15,02,04,16.10
2013,07,15,02,05,16.00
2013,07,15,02,06,15.90
2013,07,15,02,07,15.90
2013,07,15,02,08,15.80
2013,07,15,02,09,15.80
2013,07,15,02,10,15.70
2013,07,15,02,11,15.70
2013,07,15,02,12,15.60
2013,07,15,02,13,15.60
2013,07,15,02,14,15.50
2013,07,15,02,15,15.50
2013,07,15,02,16,15.50
2013,07,15,02,17,15.50
2013,07,15,02,18,15.50
2013,07,15,02,19,15.40
2013,07,15,02,20,15.40
2013,07,15,02,21,15.40
2013,07,15,02,22,15.40
2013,07,15,02,23,15.50
2013,07,15,02,24,15.50
2013,07,15,02,25,15.50
2013,07,15,02,26,15.50
2013,07,15,02,27,15.50
2013,07,15,02,28,15.60
2013,07,15,02,29,15.60
2013,07,15,02,30,15.60
2013,07,15,02,31,15.60
2013,07,15,02,32,15.60
2013,07,15,02,33,15.60
2013,07,15,02,34,15.60
2013,07,15,02,35,15.60
2013,07,15,02,36,15.60
2013,07,15,02,37,15.60
2013,07,15,02,38,15.60
2013,07,15,02,39,15.60
2013,07,15,02,40,15.50
2013,07,15,02,41,15.50
2013,07,15,02,42,15.50
2013,07,15,02,43,15.50
2013,07,15,02,44,15.50
2013,07,15,02,45,15.50
2013,07,15,02,46,15.50
2013,07,15,02,47,15.50
2013,07,15,02,48,15.50
2013,07,15,02,49,15.50
2013,07,15,02,50,15.50
2013,07,15,02,51,15.50
2013,07,15,02,52,15.50
2013,07,15,02,53,15.50
2013,07,15,02,54,15.50
2013,07,15,02,55,15.60
2013,07,15,02,56,15.70
2013,07,15,02,57,15.80
2013,07,15,02,58,15.80
2013,07,15,02,59,15.90
2013,07,15,03,00,16.10
2013,07,15,03,01,16.20
2013,07,15,03,02,16.30
2013,07,15,03,03,16.40
2013,07,15,03,04,16.60
2013,07,15,03,05,16.70
2013,07,15,03,06,16.80
2013,07,15,03,07,16.90
2013,07,15,03,08,17.00
2013,07,15,03,09,17.00
2013,07,15,03,10,17.10
2013,07,15,03,11,17.10
2013,07,15,03,12,17.20
2013,07,15,03,13,17.20
2013,07,15,03,14,17.30
2013,07,15,03,15,17.30
2013,07,15,03,16,17.30
2013,07,15,03,17,17.30
2013,07,15,03,18,17.30
2013,07,15,03,19,17.30
2013,07,15,03,20,17.20
2013,07,15,03,21,17.20
2013,07,15,03,22,17.20
2013,07,15,03,23,17.20
2013,07,15,03,24,17.10
2013,07,15,03,25,17.10
2013,07,15,03,26,17.00
2013,07,15,03,27,17.00
2013,07,15,03,28,16.90
2013,07,15,03,29,16.90
2013,07,15,03,30,16.80
2013,07,15,03,31,16.70
2013,07,15,03,32,16.70
2013,07,15,03,33,16.60
2013,07,15,03,34,16.60
2013,07,15,03,35,16.40
2013,07,15,03,36,16.40
2013,07,15,03,37,16.40
2013,07,15,03,38,16.30
2013,07,15,03,39,16.30
2013,07,15,03,40,16.30
2013,07,15,03,41,16.30
2013,07,15,03,42,16.30
2013,07,15,03,43,16.20
2013,07,15,03,44,16.20
2013,07,15,03,45,16.20
2013,07,15,03,46,16.10
2013,07,15,03,47,16.10
2013,07,15,03,48,16.10
2013,07,15,03,49,16.10
2013,07,15,03,50,16.10
2013,07,15,03,51,16.10
2013,07,15,03,52,16.10
2013,07,15,03,53,16.10
2013,07,15,03,54,16.10
2013,07,15,03,55,16.10
2013,07,15,03,56,16.10
2013,07,15,03,57,16.10
2013,07,15,03,58,16.10
2013,07,15,03,59,16.20
2013,07,15,04,00,16.20
2013,07,15,04,01,16.20
2013,07,15,04,02,16.20
2013,07,15,04,03,16.20
2013,07,15,04,04,16.20
2013,07,15,04,05,16.20
2013,07,15,04,06,16.20
2013,07,15,04,07,16.20
2013,07,15,04,08,16.20
2013,07,15,04,09,16.20
2013,07,15,04,10,16.20
2013,07,15,04,11,16.20
2013,07,15,04,12,16.20
2013,07,15,04,13,16.20
2013,07,15,04,14,16.10
2013,07,15,04,15,16.10
2013,07,15,04,16,16.10
2013,07,15,04,17,16.10
2013,07,15,04,18,16.10
2013,07,15,04,19,16.10
2013,07,15,04,20,16.10
2013,07,15,04,21,16.10
2013,07,15,04,22,16.10
2013,07,15,04,23,16.10
2013,07,15,04,24,16.10
2013,07,15,04,25,16.10
2013,07,15,04,26,16.10
2013,07,15,04,27,16.10
2013,07,15,04,28,16.10
2013,07,15,04,29,16.10
2013,07,15,04,30,16.10
2013,07,15,04,31,16.10
2013,07,15,04,32,16.10
2013,07,15,04,33,16.10
2013,07,15,04,34,16.10
2013,07,15,04,35,16.10
2013,07,15,04,36,16.10
2013,07,15,04,37,16.10
2013,07,15,04,38,16.10
2013,07,15,04,39,16.10
2013,07,15,04,40,16.10
2013,07,15,04,41,16.10
2013,07,15,04,42,16.10
2013,07,15,04,43,16.10
2013,07,15,04,44,16.10
2013,07,15,04,45,16.10
2013,07,15,04,46,16.10
2013,07,15,04,47,16.10
2013,07,15,04,48,16.00
2013,07,15,04,49,15.90
2013,07,15,04,50,15.90
2013,07,15,04,51,15.90
2013,07,15,04,52,15.90
2013,07,15,04,53,15.90
2013,07,15,04,54,15.90
2013,07,15,04,55,15.90
2013,07,15,04,56,15.80
2013,07,15,04,57,15.80
2013,07,15,04,58,15.80
2013,07,15,04,59,15.80
2013,07,15,05,00,15.80
2013,07,15,05,01,15.80
2013,07,15,05,02,15.80
2013,07,15,05,03,15.80
2013,07,15,05,04,15.80
2013,07,15,05,05,15.80
2013,07,15,05,06,15.80
2013,07,15,05,07,15.80
2013,07,15,05,08,15.80
2013,07,15,05,09,15.80
2013,07,15,05,10,15.80
2013,07,15,05,11,15.80
2013,07,15,05,12,15.80
2013,07,15,05,13,15.80
2013,07,15,05,14,15.80
2013,07,15,05,15,15.80
2013,07,15,05,16,15.80
2013,07,15,05,17,15.70
2013,07,15,05,18,15.70
2013,07,15,05,19,15.70
2013,07,15,05,20,15.70
2013,07,15,05,21,15.60
2013,07,15,05,22,15.60
2013,07,15,05,23,15.60
2013,07,15,05,24,15.60
2013,07,15,05,25,15.50
2013,07,15,05,26,15.50
2013,07,15,05,27,15.50
2013,07,15,05,28,15.50
2013,07,15,05,29,15.50
2013,07,15,05,30,15.50
2013,07,15,05,31,15.40
2013,07,15,05,32,15.40
2013,07,15,05,33,15.40
2013,07,15,05,34,15.30
2013,07,15,05,35,15.30
2013,07,15,05,36,15.30
2013,07,15,05,37,15.30
2013,07,15,05,38,15.30
2013,07,15,05,39,15.20
2013,07,15,05,40,15.20
2013,07,15,05,41,15.20
2013,07,15,05,42,15.20
2013,07,15,05,43,15.20
2013,07,15,05,44,15.20
2013,07,15,05,45,15.20
2013,07,15,05,46,15.20
2013,07,15,05,47,15.20
2013,07,15,05,48,15.20
2013,07,15,05,49,15.30
2013,07,15,05,50,15.30
2013,07,15,05,51,15.30
2013,07,15,05,52,15.30
2013,07,15,05,53,15.30
2013,07,15,05,54,15.30
2013,07,15,05,55,15.30
2013,07,15,05,56,15.30
2013,07,15,05,57,15.40
2013,07,15,05,58,15.40
2013,07,15,05,59,15.40
2013,07,15,06,00,15.50
2013,07,15,06,01,15.50
2013,07,15,06,02,15.50
2013,07,15,06,03,15.50
2013,07,15,06,04,15.50
2013,07,15,06,05,15.60
2013,07,15,06,06,15.60
2013,07,15,06,07,15.60
2013,07,15,06,08,15.60
2013,07,15,06,09,15.70
2013,07,15,06,10,15.70
2013,07,15,06,11,15.80
2013,07,15,06,12,15.80
2013,07,15,06,13,15.80
2013,07,15,06,14,15.80
2013,07,15,06,15,15.80
2013,07,15,06,16,15.80
2013,07,15,06,17,15.90
2013,07,15,06,18,15.90
2013,07,15,06,19,15.90
2013,07,15,06,20,15.90
2013,07,15,06,21,15.90
2013,07,15,06,22,15.90
2013,07,15,06,23,16.00
2013,07,15,06,24,16.10
2013,07,15,06,25,16.10
2013,07,15,06,26,16.10
2013,07,15,06,27,16.10
2013,07,15,06,28,16.10
2013,07,15,06,29,16.10
2013,07,15,06,30,16.10
2013,07,15,06,31,16.20
2013,07,15,06,32,16.20
2013,07,15,06,33,16.20
2013,07,15,06,34,16.20
2013,07,15,06,35,16.20
2013,07,15,06,36,16.30
2013,07,15,06,37,16.30
2013,07,15,06,38,16.30
2013,07,15,06,39,16.30
2013,07,15,06,40,16.40
2013,07,15,06,41,16.40
2013,07,15,06,42,16.60
2013,07,15,06,43,16.70
2013,07,15,06,44,16.70
2013,07,15,06,45,16.80
2013,07,15,06,46,16.90
2013,07,15,06,47,17.00
2013,07,15,06,48,17.10
2013,07,15,06,49,17.20
2013,07,15,06,50,17.20
2013,07,15,06,51,17.30
2013,07,15,06,52,17.30
2013,07,15,06,53,17.30
2013,07,15,06,54,17.30
2013,07,15,06,55,17.40
2013,07,15,06,56,17.40
2013,07,15,06,57,17.50
2013,07,15,06,58,17.50
2013,07,15,06,59,17.50
2013,07,15,07,00,17.60
2013,07,15,07,01,17.50
2013,07,15,07,02,17.50
2013,07,15,07,03,17.50
2013,07,15,07,04,17.50
2013,07,15,07,05,17.50
2013,07,15,07,06,17.50
2013,07,15,07,07,17.50
2013,07,15,07,08,17.50
2013,07,15,07,09,17.40
2013,07,15,07,10,17.40
2013,07,15,07,11,17.50
2013,07,15,07,12,17.50
2013,07,15,07,13,17.60
2013,07,15,07,14,17.70
2013,07,15,07,15,17.70
2013,07,15,07,16,17.80
2013,07,15,07,17,17.80
2013,07,15,07,18,17.90
2013,07,15,07,19,17.90
2013,07,15,07,20,18.00
2013,07,15,07,21,18.10
2013,07,15,07,22,18.10
2013,07,15,07,23,18.10
2013,07,15,07,24,18.00
2013,07,15,07,25,17.90
2013,07,15,07,26,17.90
2013,07,15,07,27,17.80
2013,07,15,07,28,17.70
2013,07,15,07,29,17.70
2013,07,15,07,30,17.70
2013,07,15,07,31,17.60
2013,07,15,07,32,17.60
2013,07,15,07,33,17.60
2013,07,15,07,34,17.70
2013,07,15,07,35,17.70
2013,07,15,07,36,17.70
2013,07,15,07,37,17.60
2013,07,15,07,38,17.60
2013,07,15,07,39,17.60
2013,07,15,07,40,17.70
2013,07,15,07,41,17.70
2013,07,15,07,42,17.70
2013,07,15,07,43,17.70
2013,07,15,07,44,17.80
2013,07,15,07,45,17.80
2013,07,15,07,46,17.80
2013,07,15,07,47,17.90
2013,07,15,07,48,17.90
2013,07,15,07,49,17.90
2013,07,15,07,50,17.90
2013,07,15,07,51,17.90
2013,07,15,07,52,17.90
2013,07,15,07,53,17.90
2013,07,15,07,54,17.90
2013,07,15,07,55,17.90
2013,07,15,07,56,18.00
2013,07,15,07,57,18.10
2013,07,15,07,58,18.20
2013,07,15,07,59,18.30
2013,07,15,08,00,18.30
2013,07,15,08,01,18.50
2013,07,15,08,02,18.50
2013,07,15,08,03,18.60
2013,07,15,08,04,18.60
2013,07,15,08,05,18.60
2013,07,15,08,06,18.60
2013,07,15,08,07,18.50
2013,07,15,08,08,18.40
2013,07,15,08,09,18.30
2013,07,15,08,10,18.30
2013,07,15,08,11,18.40
2013,07,15,08,12,18.40
2013,07,15,08,13,18.40
2013,07,15,08,14,18.40
2013,07,15,08,15,18.30
2013,07,15,08,16,18.30
2013,07,15,08,17,18.30
2013,07,15,08,18,18.20
2013,07,15,08,19,18.20
2013,07,15,08,20,18.30
2013,07,15,08,21,18.30
2013,07,15,08,22,18.20
2013,07,15,08,23,18.20
2013,07,15,08,24,18.30
2013,07,15,08,25,18.30
2013,07,15,08,26,18.30
2013,07,15,08,27,18.30
2013,07,15,08,28,18.40
2013,07,15,08,29,18.40
2013,07,15,08,30,18.40
2013,07,15,08,31,18.40
2013,07,15,08,32,18.40
2013,07,15,08,33,18.40
2013,07,15,08,34,18.40
2013,07,15,08,35,18.50
2013,07,15,08,36,18.50
2013,07,15,08,37,18.60
2013,07,15,08,38,18.60
2013,07,15,08,39,18.70
2013,07,15,08,40,18.70
2013,07,15,08,41,18.80
2013,07,15,08,42,18.80
2013,07,15,08,43,18.90
2013,07,15,08,44,18.90
2013,07,15,08,45,19.00
2013,07,15,08,46,19.10
2013,07,15,08,47,19.10
2013,07,15,08,48,19.10
2013,07,15,08,49,19.10
2013,07,15,08,50,19.00
2013,07,15,08,51,18.90
2013,07,15,08,52,18.90
2013,07,15,08,53,18.90
2013,07,15,08,54,18.90
2013,07,15,08,55,19.00
2013,07,15,08,56,19.00
2013,07,15,08,57,18.90
2013,07,15,08,58,18.90
2013,07,15,08,59,19.00
2013,07,15,09,00,19.00
2013,07,15,09,01,18.90
2013,07,15,09,02,18.90
2013,07,15,09,03,18.80
2013,07,15,09,04,18.80
2013,07,15,09,05,18.80
2013,07,15,09,06,18.80
2013,07,15,09,07,18.80
2013,07,15,09,08,18.80
2013,07,15,09,09,18.80
2013,07,15,09,10,18.90
2013,07,15,09,11,18.90
2013,07,15,09,12,18.90
2013,07,15,09,13,18.90
2013,07,15,09,14,18.90
2013,07,15,09,15,19.10
2013,07,15,09,16,19.10
2013,07,15,09,17,19.10
2013,07,15,09,18,19.10
2013,07,15,09,19,19.20
2013,07,15,09,20,19.30
2013,07,15,09,21,19.30
2013,07,15,09,22,19.40
2013,07,15,09,23,19.50
2013,07,15,09,24,19.60
2013,07,15,09,25,19.60
2013,07,15,09,26,19.50
2013,07,15,09,27,19.50
2013,07,15,09,28,19.50
2013,07,15,09,29,19.60
2013,07,15,09,30,19.60
2013,07,15,09,31,19.70
2013,07,15,09,32,19.70
2013,07,15,09,33,19.80
2013,07,15,09,34,19.80
2013,07,15,09,35,19.80
2013,07,15,09,36,19.80
2013,07,15,09,37,19.70
2013,07,15,09,38,19.70
2013,07,15,09,39,19.60
2013,07,15,09,40,19.60
2013,07,15,09,41,19.50
2013,07,15,09,42,19.40
2013,07,15,09,43,19.40
2013,07,15,09,44,19.40
2013,07,15,09,45,19.40
2013,07,15,09,46,19.50
2013,07,15,09,47,19.50
2013,07,15,09,48,19.50
2013,07,15,09,49,19.50
2013,07,15,09,50,19.50
2013,07,15,09,51,19.50
2013,07,15,09,52,19.50
2013,07,15,09,53,19.60
2013,07,15,09,54,19.60
2013,07,15,09,55,19.70
2013,07,15,09,56,19.70
2013,07,15,09,57,19.70
2013,07,15,09,58,19.80
2013,07,15,09,59,19.80
2013,07,15,10,00,19.70
2013,07,15,10,01,19.70
2013,07,15,10,02,19.60
2013,07,15,10,03,19.60
2013,07,15,10,04,19.60
2013,07,15,10,05,19.60
2013,07,15,10,06,19.60
2013,07,15,10,07,19.70
2013,07,15,10,08,19.70
2013,07,15,10,09,19.70
2013,07,15,10,10,19.80
2013,07,15,10,11,19.80
2013,07,15,10,12,19.90
2013,07,15,10,13,19.90
2013,07,15,10,14,19.90
2013,07,15,10,15,19.90
2013,07,15,10,16,19.90
2013,07,15,10,17,19.90
2013,07,15,10,18,19.90
2013,07,15,10,19,19.90
2013,07,15,10,20,19.90
2013,07,15,10,21,19.90
2013,07,15,10,22,19.90
2013,07,15,10,23,19.90
2013,07,15,10,24,20.00
2013,07,15,10,25,20.10
2013,07,15,10,26,20.10
2013,07,15,10,27,20.10
2013,07,15,10,28,20.20
2013,07,15,10,29,20.20
2013,07,15,10,30,20.30
2013,07,15,10,31,20.30
2013,07,15,10,32,20.30
2013,07,15,10,33,20.30
2013,07,15,10,34,20.30
2013,07,15,10,35,20.40
2013,07,15,10,36,20.40
2013,07,15,10,37,20.40
2013,07,15,10,38,20.50
2013,07,15,10,39,20.50
2013,07,15,10,40,20.60
2013,07,15,10,41,20.60
2013,07,15,10,42,20.60
2013,07,15,10,43,20.60
2013,07,15,10,44,20.60
2013,07,15,10,45,20.60
2013,07,15,10,46,20.70
2013,07,15,10,47,20.80
2013,07,15,10,48,20.90
2013,07,15,10,49,21.00
2013,07,15,10,50,21.00
2013,07,15,10,51,21.00
2013,07,15,10,52,21.00
2013,07,15,10,53,21.00
2013,07,15,10,54,21.00
2013,07,15,10,55,21.00
2013,07,15,10,56,21.10
2013,07,15,10,57,21.10
2013,07,15,10,58,21.10
2013,07,15,10,59,21.10
2013,07,15,11,00,21.10
2013,07,15,11,01,21.10
2013,07,15,11,02,21.10
2013,07,15,11,03,21.20
2013,07,15,11,04,21.20
2013,07,15,11,05,21.10
2013,07,15,11,06,21.10
2013,07,15,11,07,21.00
2013,07,15,11,08,21.00
2013,07,15,11,09,20.90
2013,07,15,11,10,21.00
2013,07,15,11,11,21.00
2013,07,15,11,12,21.10
2013,07,15,11,13,21.30
2013,07,15,11,14,21.30
2013,07,15,11,15,21.20
2013,07,15,11,16,21.20
2013,07,15,11,17,21.20
2013,07,15,11,18,21.20
2013,07,15,11,19,21.20
2013,07,15,11,20,21.20
2013,07,15,11,21,21.10
2013,07,15,11,22,21.10
2013,07,15,11,23,21.20
2013,07,15,11,24,21.20
2013,07,15,11,25,21.30
2013,07,15,11,26,21.30
2013,07,15,11,27,21.30
2013,07,15,11,28,21.30
2013,07,15,11,29,21.30
2013,07,15,11,30,21.30
2013,07,15,11,31,21.30
2013,07,15,11,32,21.30
2013,07,15,11,33,21.30
2013,07,15,11,34,21.30
2013,07,15,11,35,21.40
2013,07,15,11,36,21.40
2013,07,15,11,37,21.40
2013,07,15,11,38,21.40
2013,07,15,11,39,21.30
2013,07,15,11,40,21.30
2013,07,15,11,41,21.30
2013,07,15,11,42,21.30
2013,07,15,11,43,21.30
2013,07,15,11,44,21.40
2013,07,15,11,45,21.50
2013,07,15,11,46,21.60
2013,07,15,11,47,21.60
2013,07,15,11,48,21.60
2013,07,15,11,49,21.60
2013,07,15,11,50,21.60
2013,07,15,11,51,21.60
2013,07,15,11,52,21.60
2013,07,15,11,53,21.60
2013,07,15,11,54,21.60
2013,07,15,11,55,21.60
2013,07,15,11,56,21.60
2013,07,15,11,57,21.70
2013,07,15,11,58,21.80
2013,07,15,11,59,21.90
2013,07,15,12,00,21.90
2013,07,15,12,01,21.90
2013,07,15,12,02,21.80
2013,07,15,12,03,21.80
2013,07,15,12,04,21.80
2013,07,15,12,05,21.90
2013,07,15,12,06,21.90
2013,07,15,12,07,21.90
2013,07,15,12,08,21.80
2013,07,15,12,09,21.80
2013,07,15,12,10,21.80
2013,07,15,12,11,21.80
2013,07,15,12,12,22.00
2013,07,15,12,13,22.10
2013,07,15,12,14,22.20
2013,07,15,12,15,22.20
2013,07,15,12,16,22.30
2013,07,15,12,17,22.10
2013,07,15,12,18,22.10
2013,07,15,12,19,22.10
2013,07,15,12,20,22.00
2013,07,15,12,21,22.00
2013,07,15,12,22,21.90
2013,07,15,12,23,21.80
2013,07,15,12,24,21.80
2013,07,15,12,25,21.90
2013,07,15,12,26,22.00
2013,07,15,12,27,22.10
2013,07,15,12,28,22.10
2013,07,15,12,29,22.20
2013,07,15,12,30,22.20
2013,07,15,12,31,22.20
2013,07,15,12,32,22.30
2013,07,15,12,33,22.20
2013,07,15,12,34,22.20
2013,07,15,12,35,22.20
2013,07,15,12,36,22.20
2013,07,15,12,37,22.30
2013,07,15,12,38,22.40
2013,07,15,12,39,22.50
2013,07,15,12,40,22.50
2013,07,15,12,41,22.50
2013,07,15,12,42,22.60
2013,07,15,12,43,22.50
2013,07,15,12,44,22.30
2013,07,15,12,45,22.30
2013,07,15,12,46,22.30
2013,07,15,12,47,22.40
2013,07,15,12,48,22.40
2013,07,15,12,49,22.30
2013,07,15,12,50,22.20
2013,07,15,12,51,22.30
2013,07,15,12,52,22.40
2013,07,15,12,53,22.40
2013,07,15,12,54,22.50
2013,07,15,12,55,22.50
2013,07,15,12,56,22.60
2013,07,15,12,57,22.60
2013,07,15,12,58,22.70
2013,07,15,12,59,22.80
2013,07,15,13,00,22.90
2013,07,15,13,01,22.90
2013,07,15,13,02,23.10
2013,07,15,13,03,23.10
2013,07,15,13,04,22.90
2013,07,15,13,05,22.90
2013,07,15,13,06,23.00
2013,07,15,13,07,23.10
2013,07,15,13,08,23.20
2013,07,15,13,09,23.30
2013,07,15,13,10,23.30
2013,07,15,13,11,23.30
2013,07,15,13,12,23.30
2013,07,15,13,13,23.30
2013,07,15,13,14,23.40
2013,07,15,13,15,23.50
2013,07,15,13,16,23.60
2013,07,15,13,17,23.60
2013,07,15,13,18,23.50
2013,07,15,13,19,23.40
2013,07,15,13,20,23.40
2013,07,15,13,21,23.40
2013,07,15,13,22,23.40
2013,07,15,13,23,23.40
2013,07,15,13,24,23.40
2013,07,15,13,25,23.60
2013,07,15,13,26,23.70
2013,07,15,13,27,23.70
2013,07,15,13,28,23.80
2013,07,15,13,29,23.80
2013,07,15,13,30,23.80
2013,07,15,13,31,23.70
2013,07,15,13,32,23.70
2013,07,15,13,33,23.70
2013,07,15,13,34,23.60
2013,07,15,13,35,23.60
2013,07,15,13,36,23.60
2013,07,15,13,37,23.70
2013,07,15,13,38,23.70
2013,07,15,13,39,23.70
2013,07,15,13,40,23.60
2013,07,15,13,41,23.40
2013,07,15,13,42,23.30
2013,07,15,13,43,23.20
2013,07,15,13,44,23.10
2013,07,15,13,45,23.10
2013,07,15,13,46,23.10
2013,07,15,13,47,23.20
2013,07,15,13,48,23.20
2013,07,15,13,49,23.20
2013,07,15,13,50,23.20
2013,07,15,13,51,23.20
2013,07,15,13,52,23.20
2013,07,15,13,53,23.00
2013,07,15,13,54,22.90
2013,07,15,13,55,22.90
2013,07,15,13,56,22.80
2013,07,15,13,57,22.70
2013,07,15,13,58,22.70
2013,07,15,13,59,22.70
2013,07,15,14,00,22.80
2013,07,15,14,01,22.80
2013,07,15,14,02,22.90
2013,07,15,14,03,22.80
2013,07,15,14,04,22.70
2013,07,15,14,05,22.70
2013,07,15,14,06,22.70
2013,07,15,14,07,22.70
2013,07,15,14,08,22.70
2013,07,15,14,09,22.70
2013,07,15,14,10,22.70
2013,07,15,14,11,22.80
2013,07,15,14,12,22.90
2013,07,15,14,13,22.90
2013,07,15,14,14,22.90
2013,07,15,14,15,22.90
2013,07,15,14,16,22.90
2013,07,15,14,17,22.90
2013,07,15,14,18,22.90
2013,07,15,14,19,23.00
2013,07,15,14,20,23.10
2013,07,15,14,21,23.10
2013,07,15,14,22,23.10
2013,07,15,14,23,23.10
2013,07,15,14,24,23.10
2013,07,15,14,25,23.10
2013,07,15,14,26,23.00
2013,07,15,14,27,22.90
2013,07,15,14,28,23.00
2013,07,15,14,29,23.10
2013,07,15,14,30,23.20
2013,07,15,14,31,23.30
2013,07,15,14,32,23.40
2013,07,15,14,33,23.60
2013,07,15,14,34,23.60
2013,07,15,14,35,23.60
2013,07,15,14,36,23.60
2013,07,15,14,37,23.60
2013,07,15,14,38,23.70
2013,07,15,14,39,23.70
2013,07,15,14,40,23.70
2013,07,15,14,41,23.70
2013,07,15,14,42,23.70
2013,07,15,14,43,23.70
2013,07,15,14,44,23.70
2013,07,15,14,45,23.80
2013,07,15,14,46,23.80
2013,07,15,14,47,23.80
2013,07,15,14,48,23.80
2013,07,15,14,49,23.80
2013,07,15,14,50,23.80
2013,07,15,14,51,23.80
2013,07,15,14,52,23.90
2013,07,15,14,53,24.10
2013,07,15,14,54,24.10
2013,07,15,14,55,24.20
2013,07,15,14,56,24.30
2013,07,15,14,57,24.40
2013,07,15,14,58,24.30
2013,07,15,14,59,24.20
2013,07,15,15,00,24.20
2013,07,15,15,01,24.30
2013,07,15,15,02,24.30
2013,07,15,15,03,24.30
2013,07,15,15,04,24.30
2013,07,15,15,05,24.30
2013,07,15,15,06,24.40
2013,07,15,15,07,24.40
2013,07,15,15,08,24.60
2013,07,15,15,09,24.70
2013,07,15,15,10,24.80
2013,07,15,15,11,24.90
2013,07,15,15,12,25.10
2013,07,15,15,13,25.20
2013,07,15,15,14,25.10
2013,07,15,15,15,25.10
2013,07,15,15,16,25.10
2013,07,15,15,17,25.00
2013,07,15,15,18,24.90
2013,07,15,15,19,24.80
2013,07,15,15,20,24.70
2013,07,15,15,21,24.60
2013,07,15,15,22,24.50
2013,07,15,15,23,24.50
2013,07,15,15,24,24.50
2013,07,15,15,25,24.60
2013,07,15,15,26,24.60
2013,07,15,15,27,24.60
2013,07,15,15,28,24.60
2013,07,15,15,29,24.70
2013,07,15,15,30,24.80
2013,07,15,15,31,24.90
2013,07,15,15,32,25.00
2013,07,15,15,33,25.10
2013,07,15,15,34,25.20
2013,07,15,15,35,25.30
2013,07,15,15,36,25.30
2013,07,15,15,37,25.40
2013,07,15,15,38,25.50
2013,07,15,15,39,25.60
2013,07,15,15,40,25.70
2013,07,15,15,41,25.60
2013,07,15,15,42,25.50
2013,07,15,15,43,25.40
2013,07,15,15,44,25.40
2013,07,15,15,45,25.40
2013,07,15,15,46,25.40
2013,07,15,15,47,25.40
2013,07,15,15,48,25.40
2013,07,15,15,49,25.50
2013,07,15,15,50,25.50
2013,07,15,15,51,25.50
2013,07,15,15,52,25.50
2013,07,15,15,53,25.50
2013,07,15,15,54,25.50
2013,07,15,15,55,25.50
2013,07,15,15,56,25.50
2013,07,15,15,57,25.60
2013,07,15,15,58,25.60
2013,07,15,15,59,25.60
2013,07,15,16,00,25.70
2013,07,15,16,01,25.70
2013,07,15,16,02,25.70
2013,07,15,16,03,25.70
2013,07,15,16,04,25.70
2013,07,15,16,05,25.70
2013,07,15,16,06,25.70
2013,07,15,16,07,25.70
2013,07,15,16,08,25.70
2013,07,15,16,09,25.70
2013,07,15,16,10,25.70
2013,07,15,16,11,25.70
2013,07,15,16,12,25.60
2013,07,15,16,13,25.60
2013,07,15,16,14,25.70
2013,07,15,16,15,25.70
2013,07,15,16,16,25.70
2013,07,15,16,17,25.70
2013,07,15,16,18,25.70
2013,07,15,16,19,25.60
2013,07,15,16,20,25.60
2013,07,15,16,21,25.60
2013,07,15,16,22,25.60
2013,07,15,16,23,25.50
2013,07,15,16,24,25.50
2013,07,15,16,25,25.50
2013,07,15,16,26,25.60
2013,07,15,16,27,25.60
2013,07,15,16,28,25.60
2013,07,15,16,29,25.60
2013,07,15,16,30,25.60
2013,07,15,16,31,25.60
2013,07,15,16,32,25.60
2013,07,15,16,33,25.50
2013,07,15,16,34,25.50
2013,07,15,16,35,25.50
2013,07,15,16,36,25.40
2013,07,15,16,37,25.40
2013,07,15,16,38,25.40
2013,07,15,16,39,25.40
2013,07,15,16,40,25.50
2013,07,15,16,41,25.60
2013,07,15,16,42,25.50
2013,07,15,16,43,25.60
2013,07,15,16,44,25.60
2013,07,15,16,45,25.70
2013,07,15,16,46,25.70
2013,07,15,16,47,25.70
2013,07,15,16,48,25.80
2013,07,15,16,49,25.80
2013,07,15,16,50,25.80
2013,07,15,16,51,25.80
2013,07,15,16,52,25.90
2013,07,15,16,53,25.90
2013,07,15,16,54,25.90
2013,07,15,16,55,25.90
2013,07,15,16,56,25.80
2013,07,15,16,57,25.90
2013,07,15,16,58,25.90
2013,07,15,16,59,25.90
2013,07,15,17,00,26.00
2013,07,15,17,01,26.10
2013,07,15,17,02,26.10
2013,07,15,17,03,26.10
2013,07,15,17,04,26.10
2013,07,15,17,05,26.00
2013,07,15,17,06,26.00
2013,07,15,17,07,26.00
2013,07,15,17,08,26.10
2013,07,15,17,09,26.10
2013,07,15,17,10,26.10
2013,07,15,17,11,26.10
2013,07,15,17,12,26.10
2013,07,15,17,13,26.10
2013,07,15,17,14,26.10
2013,07,15,17,15,26.10
2013,07,15,17,16,26.10
2013,07,15,17,17,26.00
2013,07,15,17,18,26.00
2013,07,15,17,19,25.90